Location: Aldenham
(51.6667°N, 0.3500°W)
Time: 22:11:09
(UTC+00:00)

Vanguard 1 - Visible Passes

Search period start: 18 February 2026 00:00
Search period end: 28 February 2026 00:00
Orbit: 652 x 3819 km, 34.3° (Epoch: 17 February)

Date Brightness Start Highest point End Pass type
(mag) Time Alt. Az. Time Alt. Az. Time Alt. Az.
18 Feb 13.2 17:39:36 10° WSW 17:52:53 43° S 18:12:46 10° ESE visible
18 Feb 13.5 20:00:22 10° W 20:15:50 36° SSW 20:31:33 16° SSE visible
18 Feb 13.9 22:25:57 10° WSW 22:37:57 18° SW 22:44:10 16° SSW visible
19 Feb 13.2 17:58:39 10° WSW 18:12:03 42° S 18:31:49 10° SE visible
19 Feb 13.6 20:19:58 10° W 20:34:53 31° SSW 20:50:12 15° SSE visible
19 Feb 14.1 22:48:31 10° WSW 22:56:32 13° SW 23:02:49 11° SSW visible
20 Feb 13.3 18:17:49 10° WSW 18:31:12 40° S 18:50:41 10° SE visible
20 Feb 13.7 20:39:48 10° W 20:53:51 27° SSW 21:08:56 13° S visible
21 Feb 13.4 18:37:05 10° WSW 18:50:22 37° SSW 19:09:19 10° SE visible
21 Feb 13.9 21:00:03 10° WSW 21:12:46 22° SW 21:27:43 10° S visible
22 Feb 13.5 18:56:28 10° WSW 19:09:30 33° SSW 19:27:39 10° SSE visible
22 Feb 14.0 21:20:59 10° WSW 21:31:36 17° SW 21:43:43 10° S visible
23 Feb 13.6 19:16:02 10° WSW 19:28:36 29° SSW 19:45:38 10° SSE visible
23 Feb 14.2 21:43:39 10° WSW 21:50:24 12° SW 21:57:43 10° SSW visible
24 Feb 13.8 19:35:51 10° WSW 19:47:40 25° SSW 20:03:09 10° SSE visible
25 Feb 13.9 19:56:07 10° WSW 20:06:42 20° SSW 20:20:00 10° S visible
26 Feb 13.5 17:53:18 10° WSW 18:03:52 30° SSW 18:19:32 10° SSE visible
26 Feb 14.1 20:17:12 10° WSW 20:25:41 15° SW 20:35:46 10° S visible
27 Feb 13.7 18:12:52 10° WSW 18:23:00 26° SSW 18:37:29 10° SSE visible
27 Feb 14.2 20:41:02 10° SW 20:44:38 11° SW 20:48:28 10° SSW visible
